Temperature
4 5 5 5 5 5 5 5 4 5 6 7 7 7 7 8 7 7 7 7 6 6 6 6 6 6 7 7 7 7 8 8 8 8 9 9 10 10 10 10 11 11 11 10
3 5 5 5 5 6 5 6 5 5 6 7 7 8 7 7 7 6 6 6 6 6 6 6 6 6 6 6 7 7 7 7 8 8 8 9 9 10 10 10 10 10 10 10
2 4 4 4 5 6 6 6 6 5 6 6 6 7 6 6 6 6 5 5 5 5 5 5 5 6 6 6 6 7 7 7 7 8 8 8 8 9 9 10 10 10 10 10
2 3 2 5 7 7 6 6 6 6 6 6 6 6 6 6 6 5 5 4 4 5 5 5 5 5 6 6 6 6 6 7 7 7 7 7 8 8 9 9 9 10 10 10
2 2 3 6 7 6 5 5 6 5 5 6 6 5 6 6 5 4 4 4 4 4 4 5 5 5 5 6 6 6 6 6 6 6 7 7 7 8 8 9 9 9 10 10
1 2 2 5 6 6 5 3 5 5 5 5 5 3 4 5 4 4 4 4 4 4 4 4 5 5 5 5 5 5 6 6 6 6 6 7 7 7 8 8 8 9 9 9
1 1 3 5 6 5 3 3 5 5 5 4 4 3 4 4 4 4 3 3 3 4 4 4 4 4 5 5 5 5 5 6 6 6 6 6 7 7 7 7 8 8 8 9
1 1 2 5 5 4 3 5 5 5 4 4 4 4 3 3 3 3 3 3 3 3 4 4 4 4 4 4 5 5 5 5 6 6 6 6 6 7 7 7 7 8 8 8
2 3 5 6 5 5 5 5 4 4 4 3 3 3 3 2 2 2 2 2 2 2 3 3 3 3 4 4 4 5 5 5 5 5 6 6 6 6 7 7 7 7 7 8
3 3 5 6 6 5 5 4 4 3 3 3 2 2 2 2 2 2 2 2 2 2 2 3 3 3 3 4 4 4 5 5 5 5 5 6 6 6 6 7 7 7 7 7
2 3 4 5 5 5 4 4 3 3 2 2 1 1 1 1 1 1 1 1 1 1 2 2 2 3 3 3 3 4 4 4 5 5 5 5 5 6 6 7 7 7 7 7
2 4 3 4 4 4 3 3 2 2 1 1 1 1 0 0 0 0 1 1 1 1 1 2 2 2 3 3 3 3 4 4 4 5 5 5 5 5 6 6 6 7 7 7
4 4 4 4 3 3 2 2 2 1 1 0 0 -0 -0 -0 -0 -0 -0 0 0 1 1 1 2 2 2 3 3 3 3 4 4 4 4 5 5 5 5 6 6 6 6 6
4 3 3 3 2 2 2 1 1 1 0 -0 -0 -1 -1 -1 -1 -1 -1 -0 -0 0 1 1 1 2 2 2 3 3 3 3 3 4 4 4 4 4 5 5 5 5 6 6
3 3 2 2 2 1 1 1 0 -0 -0 -1 -1 -1 -1 -1 -1 -1 -1 -1 -0 -0 0 1 1 1 2 2 2 3 3 3 3 3 3 3 4 4 4 4 4 5 5 5
2 2 1 1 1 1 0 -0 -1 -1 -1 -1 -1 -2 -2 -2 -2 -1 -1 -1 -1 -0 -0 0 1 1 1 2 2 2 2 3 3 3 3 3 3 3 4 4 4 4 4 4
1 0 0 -0 -0 -0 -1 -1 -1 -2 -2 -2 -2 -2 -2 -2 -2 -2 -1 -1 -1 -1 -0 -0 0 1 1 1 2 2 2 2 2 2 2 3 3 3 3 3 3 4 4 4
0 -0 -0 -1 -1 -1 -2 -2 -2 -2 -2 -2 -3 -3 -3 -3 -3 -2 -2 -2 -1 -1 -1 -0 -0 0 0 1 1 1 1 1 1 2 2 2 2 3 3 3 3 3 3 3
-1 -1 -1 -1 -2 -2 -2 -2 -3 -3 -3 -3 -3 -3 -3 -3 -3 -3 -3 -3 -2 -2 -1 -1 -1 -1 -0 0 0 0 1 1 1 1 1 2 2 2 2 2 2 3 3 3
-2 -2 -2 -2 -2 -3 -3 -3 -3 -3 -3 -4 -4 -4 -4 -4 -4 -4 -4 -3 -3 -3 -2 -2 -2 -1 -1 -1 -0 -0 -0 0 0 0 1 1 1 1 2 2 2 2 2 3
-2 -3 -3 -3 -3 -3 -4 -4 -4 -4 -4 -4 -4 -4 -4 -4 -4 -4 -4 -4 -3 -3 -3 -3 -2 -2 -2 -1 -1 -1 -1 -0 -0 0 0 0 1 1 1 1 1 2 2 2
-3 -4 -4 -4 -4 -4 -4 -4 -5 -5 -5 -5 -5 -5 -5 -5 -5 -5 -4 -4 -4 -4 -4 -3 -3 -3 -2 -2 -2 -1 -1 -1 -0 -0 -0 0 0 0 1 1 1 1 2 2
-4 -4 -4 -5 -5 -5 -5 -5 -5 -5 -5 -5 -5 -5 -6 -6 -6 -6 -5 -4 -5 -4 -4 -4 -3 -3 -3 -2 -2 -2 -1 -1 -1 -0 -0 -0 -0 0 0 0 1 1 1 1
-5 -5 -5 -5 -6 -6 -6 -6 -6 -6 -6 -6 -6 -6 -6 -6 -6 -6 -6 -5 -5 -5 -4 -4 -4 -3 -3 -2 -2 -2 -1 -1 -1 -1 -1 -1 -0 -0 -0 0 0 1 1 1
-6 -6 -6 -6 -6 -6 -7 -7 -7 -7 -7 -7 -6 -6 -7 -7 -7 -6 -6 -6 -5 -5 -5 -4 -4 -3 -3 -2 -2 -2 -2 -2 -1 -1 -1 -1 -1 -0 -0 -0 0 1 1 1
-6 -7 -7 -7 -7 -7 -8 -8 -8 -8 -8 -8 -7 -7 -7 -7 -7 -7 -6 -6 -5 -5 -5 -4 -4 -3 -3 -3 -2 -2 -2 -2 -1 -1 -1 -1 -1 -1 -1 -1 -0 0 1 1
-7 -7 -8 -8 -8 -8 -8 -8 -8 -8 -8 -8 -8 -8 -8 -7 -7 -7 -6 -6 -6 -5 -5 -4 -4 -4 -3 -3 -2 -2 -2 -2 -2 -2 -1 -1 -1 -1 -1 -1 -0 0 0 0
Wind_Speed
16 18 17 18 18 15 14 13 13 16 17 17 13 11 10 9 10 11 11 10 9 8 7 7 6 5 4 4 3 3 3 3 4 4 5 5 6 8 8 9 10 11 12 13
13 15 15 19 19 16 15 14 15 17 19 13 11 10 9 9 10 11 11 11 9 9 8 7 7 6 5 4 4 3 3 3 3 3 3 4 5 6 7 8 9 10 12 13
9 11 12 12 11 10 10 10 10 13 13 11 11 11 10 10 10 10 11 12 11 10 8 6 6 6 6 4 4 3 3 3 3 3 3 4 3 4 6 8 8 9 11 12
7 8 8 7 3 5 8 9 8 8 8 8 10 11 9 7 8 9 11 12 12 10 9 7 6 5 5 4 4 4 3 3 3 3 3 3 3 4 5 6 7 8 9 11
4 7 11 9 5 3 5 8 5 6 8 9 10 10 7 6 7 9 10 10 10 9 9 8 6 5 5 5 4 4 4 4 3 3 3 3 4 5 4 4 6 7 8 9
6 6 7 5 1 3 4 6 2 5 7 8 8 8 8 9 10 10 10 10 10 9 9 8 6 5 5 5 5 5 5 5 3 3 3 4 4 4 3 3 5 5 6 8
11 9 9 6 1 2 2 5 4 5 6 7 6 7 8 11 11 10 10 10 10 9 9 8 6 5 6 5 5 5 5 4 3 3 4 4 4 4 3 3 4 5 6 6
7 9 10 3 2 3 6 5 5 6 7 8 9 10 10 11 12 12 11 11 11 10 9 8 6 6 6 6 5 5 4 4 4 4 4 3 4 4 4 5 5 5 6 6
9 10 6 2 4 6 6 7 6 6 8 8 9 11 12 11 11 11 11 11 10 10 10 8 7 6 6 6 4 4 3 3 3 4 4 4 5 5 4 5 5 5 5 5
9 10 10 9 8 6 5 6 7 7 8 8 10 11 12 11 11 11 11 10 9 9 9 9 7 7 6 5 4 3 3 3 3 3 4 4 4 4 4 5 6 6 6 6
12 12 11 9 7 6 6 6 7 8 8 8 10 11 11 11 11 11 10 9 8 8 9 9 8 8 6 4 4 3 3 3 3 2 3 3 3 3 4 4 6 7 7 7
13 9 7 7 5 6 7 7 7 7 8 8 8 10 11 10 10 10 10 9 8 9 9 9 9 8 6 5 3 3 3 3 2 2 2 2 2 1 1 3 4 6 8 8
13 9 8 8 7 6 6 7 7 7 8 8 8 9 10 10 9 9 9 9 9 9 9 9 9 8 6 5 3 3 3 3 3 2 2 2 3 3 1 1 2 5 7 9
8 7 9 8 7 6 7 6 6 7 7 7 8 9 9 9 10 10 10 9 9 9 9 9 8 7 6 4 3 3 3 4 3 2 2 2 2 3 3 3 3 2 4 9
7 7 7 6 6 6 5 5 6 7 7 7 7 8 8 9 10 10 10 9 9 9 9 8 7 7 6 4 3 3 3 2 2 2 2 2 3 3 3 3 3 3 3 6
5 5 5 6 7 6 5 6 6 7 7 8 8 8 9 9 10 10 9 8 8 9 9 8 7 7 6 4 3 3 3 4 3 2 2 2 3 3 4 4 4 5 5 6
5 6 6 6 6 6 5 5 6 7 7 8 8 9 9 10 10 10 9 8 8 9 8 7 7 7 6 4 3 2 2 2 3 2 2 3 3 4 4 5 5 5 5 7
5 6 5 4 4 5 5 5 6 7 7 8 8 9 9 10 10 11 10 9 9 8 8 7 7 6 5 4 3 2 2 2 2 2 3 3 3 4 4 5 5 5 5 6
2 2 3 3 3 3 4 5 6 7 7 7 8 9 10 10 10 10 9 9 9 9 8 7 9 7 5 5 4 2 2 3 3 3 3 4 3 4 4 5 5 5 6 6
1 1 2 3 3 3 5 5 6 7 7 7 8 9 10 10 10 9 9 9 8 7 8 9 7 6 5 5 5 3 3 3 3 3 3 3 4 4 4 5 5 6 6 6
1 2 3 3 4 4 5 6 7 8 8 8 9 10 10 10 9 9 8 9 8 7 8 10 7 5 4 5 5 3 3 3 4 4 4 4 4 4 4 5 5 6 6 6
2 2 3 4 5 6 6 6 6 8 9 9 9 9 9 10 9 9 9 8 8 10 8 6 5 7 7 8 4 4 4 4 4 4 4 4 5 5 5 5 5 5 6 7
3 3 4 5 6 7 7 7 7 8 8 9 9 9 9 9 8 8 9 7 6 11 8 6 8 11 11 7 4 4 4 4 4 4 4 4 5 5 6 6 6 6 6 7
3 4 5 5 6 7 8 8 8 8 8 9 9 9 9 9 8 7 7 10 12 13 7 9 12 13 11 5 4 4 4 4 4 4 4 4 5 5 5 6 6 6 6 7
4 4 5 6 6 6 7 8 8 8 8 7 8 8 7 7 8 8 7 8 11 12 8 9 12 12 7 4 4 4 4 4 4 4 4 5 5 5 5 5 6 6 6 6
4 5 5 6 6 6 6 6 6 7 7 8 7 6 6 6 7 7 7 8 9 11 8 6 6 7 5 4 4 4 3 4 4 4 4 4 5 6 6 6 6 6 6 6
5 5 5 5 5 5 5 6 7 7 7 8 9 7 7 7 7 7 8 8 7 7 6 5 5 5 4 4 3 3 3 3 3 4 4 4 5 5 6 6 6 6 6 7
Wind_Direction
268 276 279 279 280 274 262 257 262 275 281 289 304 313 318 321 323 324 327 331 332 333 331 328 324 320 322 316 307 299 286 278 271 254 229 214 208 203 197 197 196 188 186 186
276 270 273 275 270 266 263 261 262 274 280 290 303 305 316 323 324 327 329 328 327 326 326 323 322 318 315 311 299 284 274 271 280 270 251 219 208 200 192 195 194 190 188 185
279 294 297 274 256 251 251 251 258 269 280 302 309 317 324 326 328 329 331 331 327 320 317 312 309 312 313 300 293 286 278 262 259 252 259 239 219 206 199 196 188 189 190 186
282 301 261 252 257 271 273 269 265 275 291 305 312 315 312 317 328 328 330 327 321 316 313 307 302 305 306 303 294 283 280 277 246 233 238 238 225 221 210 199 189 189 189 188
265 270 273 269 266 276 283 283 273 287 307 319 324 320 310 333 338 328 324 318 314 311 307 303 300 302 306 302 290 279 277 276 255 234 232 231 224 219 216 201 194 190 186 185
246 259 263 271 49 38 329 279 305 314 312 322 330 319 310 331 328 322 320 317 313 311 309 304 299 300 297 289 280 273 271 266 249 232 225 227 228 220 207 203 197 188 185 185
240 252 264 272 129 76 255 266 332 331 322 317 305 288 302 317 318 317 315 311 311 308 305 300 298 299 289 279 272 270 268 255 244 237 229 225 225 215 199 195 186 186 183 182
218 235 252 220 137 218 249 300 308 310 306 302 301 305 312 314 314 315 315 313 314 311 305 304 304 301 290 283 277 275 273 256 240 234 232 226 217 211 196 186 182 184 177 172
215 231 263 250 244 250 269 287 295 300 305 304 305 306 308 309 310 311 311 312 314 312 308 308 307 305 294 289 286 281 274 265 247 238 227 217 208 207 195 189 186 183 176 175
260 259 271 279 277 280 286 292 297 298 302 306 303 303 304 305 307 308 307 309 311 310 308 309 309 309 296 290 288 282 274 271 260 241 227 214 212 204 200 196 189 180 177 175
260 269 278 273 276 291 295 290 292 294 296 298 300 300 300 301 302 304 305 307 308 307 306 307 311 307 301 293 287 281 275 274 272 246 226 217 220 215 214 219 205 189 185 179
255 257 261 276 289 302 299 297 297 298 299 298 297 297 298 299 299 300 302 304 303 303 304 306 307 304 304 298 286 281 277 271 265 250 238 212 193 224 225 205 198 188 184 181
257 270 273 282 287 292 291 291 290 290 291 295 298 296 298 299 300 301 302 304 304 303 302 300 299 296 299 299 288 276 269 269 263 244 232 217 188 181 175 69 138 160 165 167
260 269 271 270 277 287 285 286 290 288 286 288 292 296 298 299 302 304 304 305 306 303 301 300 298 297 301 303 290 276 266 262 252 231 221 217 199 192 187 180 168 152 151 156
255 253 261 278 282 282 284 290 291 290 292 294 296 298 300 300 301 302 304 305 305 302 301 302 301 301 308 305 285 270 266 259 244 224 220 217 200 190 186 183 173 162 147 149
257 259 264 267 271 277 284 286 285 288 294 297 300 303 303 300 298 298 300 301 300 297 299 299 296 299 304 299 288 278 262 257 253 228 217 212 195 188 185 178 172 173 173 163
245 253 255 263 270 277 277 280 284 289 294 295 298 302 301 300 299 298 299 298 293 291 294 293 294 296 293 285 274 262 250 248 250 235 221 206 196 194 188 177 178 180 179 171
235 244 251 259 265 274 281 286 290 293 294 295 300 301 299 297 296 298 300 302 299 297 294 292 292 293 288 282 276 252 239 238 237 228 222 209 201 192 182 178 176 175 168 164
231 244 262 267 269 276 285 292 296 295 294 295 296 294 292 290 292 295 298 299 296 295 298 299 300 300 293 285 281 243 228 235 245 236 215 207 207 187 180 177 175 174 168 164
272 281 294 300 304 297 295 296 297 296 297 299 298 296 294 294 295 296 295 289 282 281 292 298 299 292 286 281 281 244 228 227 233 229 214 198 186 183 180 176 173 170 167 165
289 294 295 297 299 298 296 298 298 296 298 296 292 291 290 292 294 294 292 290 289 288 293 295 295 287 285 284 281 256 238 231 227 220 208 191 182 180 177 175 173 167 162 160
275 280 287 296 298 297 297 297 293 292 293 292 290 289 290 292 293 289 278 276 288 293 295 288 286 283 284 285 269 256 245 237 226 210 200 189 184 182 180 175 171 167 161 161
275 284 290 294 294 295 297 294 291 290 289 290 291 290 288 289 289 289 290 289 293 294 295 285 287 289 286 282 264 252 239 229 220 206 201 195 190 185 180 176 172 166 163 161
292 295 295 298 299 297 294 293 291 289 286 286 285 285 286 289 288 281 280 291 297 296 291 286 289 288 285 275 257 243 233 221 212 200 197 194 188 180 174 171 169 166 162 160
287 287 288 290 290 287 288 294 294 291 290 288 286 283 281 279 282 289 290 289 292 294 289 286 288 288 283 269 252 239 232 222 213 198 191 187 179 172 170 170 168 163 160 162
284 283 282 280 280 285 290 292 293 294 296 295 295 293 291 288 287 289 289 288 287 289 288 284 282 281 275 264 253 240 225 218 211 192 178 173 168 168 167 169 168 167 163 162
284 284 287 289 288 287 287 288 290 292 292 292 294 295 295 295 293 293 292 291 291 289 285 282 278 273 270 263 256 244 221 201 182 173 174 172 169 168 167 166 167 162 158 157
Height
1461 1455 1452 1448 1444 1442 1442 1439 1437 1425 1418 1410 1407 1404 1401 1398 1396 1393 1390 1387 1384 1382 1379 1377 1375 1372 1371 1371 1371 1371 1372 1372 1373 1375 1377 1380 1382 1385 1390 1394 1399 1403 1408 1413
1457 1449 1445 1440 1433 1431 1430 1427 1425 1420 1413 1407 1405 1402 1399 1396 1394 1391 1388 1385 1382 1379 1377 1375 1373 1371 1369 1368 1368 1368 1369 1369 1370 1371 1373 1375 1377 1380 1384 1389 1393 1398 1402 1407
1456 1445 1442 1435 1423 1421 1420 1417 1418 1416 1410 1405 1403 1400 1397 1395 1392 1390 1387 1383 1380 1377 1374 1372 1371 1368 1367 1366 1365 1365 1365 1366 1367 1367 1369 1370 1372 1376 1379 1383 1387 1392 1396 1401
1456 1451 1449 1425 1414 1413 1412 1411 1410 1408 1405 1403 1401 1398 1395 1393 1391 1388 1385 1382 1378 1375 1372 1369 1367 1366 1365 1364 1363 1362 1362 1363 1364 1364 1365 1367 1369 1371 1375 1379 1382 1386 1390 1395
1456 1451 1435 1418 1412 1411 1412 1410 1406 1405 1403 1401 1399 1395 1392 1390 1389 1387 1384 1380 1376 1372 1369 1367 1365 1363 1362 1361 1361 1360 1360 1360 1360 1361 1362 1363 1365 1368 1371 1373 1377 1381 1385 1390
1453 1449 1436 1415 1410 1408 1411 1412 1404 1402 1401 1400 1398 1398 1392 1388 1386 1383 1380 1376 1372 1369 1366 1364 1362 1361 1359 1358 1358 1357 1357 1357 1357 1358 1359 1360 1362 1363 1366 1369 1373 1376 1380 1385
1448 1443 1427 1411 1409 1410 1417 1412 1403 1400 1400 1398 1397 1396 1392 1387 1384 1381 1377 1373 1369 1365 1362 1360 1359 1357 1356 1355 1354 1354 1354 1354 1354 1355 1356 1357 1359 1360 1362 1365 1369 1372 1376 1380
1440 1438 1425 1407 1407 1410 1408 1403 1401 1399 1398 1396 1394 1391 1388 1385 1381 1377 1373 1369 1365 1362 1359 1357 1355 1354 1352 1351 1351 1351 1351 1351 1350 1351 1353 1354 1356 1357 1359 1361 1365 1368 1371 1376
1422 1416 1404 1403 1403 1402 1402 1400 1398 1397 1395 1393 1390 1387 1384 1381 1377 1373 1370 1366 1362 1359 1355 1353 1352 1350 1349 1348 1348 1347 1347 1347 1347 1348 1349 1350 1352 1353 1355 1358 1360 1363 1367 1371
1411 1403 1400 1399 1398 1398 1398 1397 1395 1394 1392 1389 1387 1383 1380 1377 1373 1369 1366 1363 1359 1355 1352 1349 1348 1347 1346 1345 1344 1343 1342 1342 1342 1343 1345 1346 1348 1349 1351 1353 1356 1359 1363 1367
1405 1399 1397 1395 1394 1394 1393 1392 1391 1390 1388 1386 1383 1379 1376 1373 1369 1365 1362 1359 1356 1352 1349 1346 1344 1343 1341 1341 1340 1339 1339 1339 1339 1340 1341 1342 1344 1346 1348 1350 1352 1355 1358 1362
1397 1393 1393 1391 1390 1390 1389 1387 1386 1385 1382 1380 1379 1375 1372 1368 1365 1362 1358 1355 1352 1348 1346 1343 1341 1339 1338 1337 1337 1336 1335 1335 1336 1336 1337 1338 1340 1342 1345 1347 1350 1353 1357 1360
1388 1387 1387 1386 1385 1385 1384 1383 1381 1380 1378 1376 1373 1371 1367 1364 1360 1357 1354 1351 1348 1345 1342 1340 1337 1336 1334 1334 1333 1332 1332 1332 1332 1333 1334 1335 1337 1338 1340 1344 1347 1350 1353 1357
1382 1382 1381 1380 1380 1380 1379 1378 1376 1375 1373 1371 1369 1366 1363 1359 1356 1353 1350 1347 1344 1341 1338 1336 1334 1331 1331 1330 1329 1329 1328 1328 1329 1329 1330 1332 1333 1335 1337 1339 1342 1345 1350 1353
1377 1377 1376 1375 1375 1375 1374 1373 1371 1369 1368 1365 1364 1361 1358 1355 1351 1348 1345 1343 1340 1337 1334 1332 1330 1328 1327 1326 1325 1325 1324 1324 1325 1326 1327 1329 1330 1332 1334 1337 1339 1342 1346 1350
1370 1371 1370 1370 1370 1369 1369 1368 1366 1364 1363 1361 1358 1356 1353 1351 1347 1344 1341 1339 1336 1333 1330 1328 1326 1324 1323 1322 1321 1321 1321 1321 1321 1322 1323 1325 1327 1329 1331 1333 1336 1339 1342 1346
1366 1365 1366 1366 1365 1365 1364 1363 1362 1360 1358 1356 1354 1351 1348 1345 1342 1339 1337 1335 1332 1329 1327 1325 1322 1321 1319 1318 1318 1317 1317 1317 1318 1318 1319 1321 1323 1325 1328 1331 1333 1336 1339 1343
1360 1361 1361 1361 1360 1360 1359 1358 1357 1355 1354 1351 1349 1346 1344 1341 1338 1335 1332 1330 1327 1324 1323 1321 1319 1317 1316 1315 1314 1313 1313 1313 1314 1314 1316 1317 1319 1322 1324 1327 1330 1333 1336 1340
1355 1356 1356 1356 1356 1355 1354 1353 1352 1350 1348 1346 1344 1341 1338 1336 1333 1330 1328 1325 1322 1319 1317 1317 1315 1313 1311 1310 1310 1310 1310 1310 1310 1311 1312 1314 1316 1319 1321 1324 1327 1330 1333 1337
1352 1352 1352 1352 1351 1351 1350 1348 1347 1345 1343 1341 1338 1336 1333 1330 1328 1325 1322 1319 1317 1315 1313 1312 1310 1308 1307 1306 1306 1305 1305 1306 1306 1307 1309 1310 1313 1315 1318 1321 1324 1327 1331 1334
1349 1349 1348 1348 1347 1346 1345 1344 1342 1340 1338 1336 1333 1330 1327 1324 1322 1319 1316 1313 1311 1310 1308 1307 1305 1304 1303 1302 1301 1301 1301 1301 1302 1303 1305 1307 1310 1312 1315 1318 1321 1324 1327 1331
1346 1345 1345 1344 1343 1341 1340 1339 1337 1335 1333 1330 1328 1325 1322 1319 1316 1314 1311 1309 1307 1305 1304 1302 1301 1300 1299 1298 1297 1297 1297 1298 1299 1300 1302 1304 1306 1309 1312 1315 1318 1321 1325 1329
1343 1342 1341 1340 1338 1337 1335 1334 1332 1329 1327 1324 1322 1319 1317 1314 1311 1309 1305 1304 1303 1301 1299 1297 1296 1295 1294 1294 1293 1293 1293 1294 1295 1297 1299 1301 1303 1306 1309 1312 1315 1319 1322 1326
1339 1338 1336 1335 1334 1332 1329 1327 1326 1324 1321 1319 1316 1314 1311 1308 1305 1304 1301 1299 1298 1296 1294 1292 1291 1291 1290 1289 1289 1289 1289 1290 1292 1294 1296 1298 1300 1303 1307 1310 1313 1316 1320 1324
1334 1333 1332 1330 1328 1326 1324 1322 1320 1317 1315 1313 1310 1308 1306 1304 1301 1298 1297 1294 1293 1291 1289 1288 1287 1286 1286 1285 1285 1286 1286 1287 1289 1290 1292 1295 1298 1301 1304 1307 1310 1314 1318 1322
1330 1329 1327 1325 1324 1322 1319 1317 1315 1312 1310 1307 1305 1303 1301 1299 1297 1294 1292 1290 1288 1287 1285 1283 1283 1282 1282 1282 1282 1282 1283 1284 1286 1288 1290 1293 1296 1299 1302 1305 1309 1312 1316 1320
1326 1324 1322 1320 1319 1317 1315 1312 1310 1308 1306 1303 1300 1298 1296 1294 1292 1290 1288 1286 1284 1282 1281 1280 1279 1278 1278 1278 1279 1279 1280 1282 1284 1286 1288 1291 1293 1296 1300 1303 1307 1310 1314 1318